FO-29
1 24278U 96046B 14156.48498096 .00000005 00000-0 43497-4 0 3870
2 24278 098.5119 171.9571 0349717 328.1569 191.0127 13.53023936879082
SO-33
1 25509U 98061B 14156.61999966 .00000277 00000-0 43903-4 0 7657
2 25509 031.4300 225.9262 0349376 013.0290 104.6962 14.29544689815496
RS-22
1 27939U 03042A 14156.89666094 .00000605 00000-0 12055-3 0 5515
2 27939 097.8092 331.6038 0014027 140.0908 220.1345 14.65198408571070
VO-52
1 28650U 05017B 14156.56772021 .00001235 00000-0 14840-3 0 7563
2 28650 097.5593 162.1156 0025133 192.4782 167.5815 14.85459278491505
HO-68
1 36122U 09072B 14156.70910670 -.00000043 00000-0 00000 0 0 6533
2 36122 100.2490 208.9349 0007197 263.5391 096.4906 13.16316013214927
AO-73
1 39444U 13066AE 14156.71693047 .00000871 00000-0 12355-3 0 1609
2 39444 097.7724 227.7592 0061120 281.1075 078.3268 14.78275798 27775
UO-11
1 14781U 84021B 14156.75341516 .00000556 00000-0 77341-4 0 5106
2 14781 097.8535 217.1026 0008332 208.6105 151.4652 14.81592023626279
AO-16
1 20439U 90005D 14155.87341187 .00000075 00000-0 43909-4 0 382
2 20439 098.5063 093.4412 0010860 189.4987 215.4822 14.32356024272729
LO-19
1 20442U 90005G 14156.41111320 .00000030 00000-0 27023-4 0 9751
2 20442 098.4772 094.6593 0012082 177.5822 182.5422 14.32558566272990
AO-27
1 22825U 93061C 14156.44892102 .00000037 00000-0 31595-4 0 6832
2 22825 098.6610 102.5922 0007733 339.7671 158.3661 14.29719536 79102
IO-26
1 22826U 93061D 14156.07003151 .00000039 00000-0 32151-4 0 4390
2 22826 098.6552 102.4369 0008155 332.4905 027.5845 14.30019707 79185
GO-32
1 25397U 98043D 14156.14203944 .00000019 00000-0 26993-4 0 3621
2 25397 098.4670 114.5799 0001357 044.2149 021.0616 14.23444321826154
NO-44
1 26931U 01043C 14156.78545602 .00000063 00000-0 56449-4 0 6182
2 26931 067.0530 067.8583 0006273 282.8722 077.1678 14.30116684661979
SO-50
1 27607U 02058C 14156.48127532 .00000242 00000-0 57399-4 0 4110
2 27607 064.5573 268.0290 0046150 014.3533 345.8867 14.73764197615750
CO-55
1 27844U 03031E 14155.61793924 .00000195 00000-0 10906-3 0 9397
2 27844 098.6973 164.5709 0008556 315.8760 182.7552 14.21504463566798
CO-57
1 27848U 03031J 14156.02797102 .00000151 00000-0 89663-4 0 8803
2 27848 098.7067 164.6791 0008559 321.9461 102.7919 14.21191893566774
AO-51
1 28375U 04025K 14155.91937339 .00000142 00000-0 54956-4 0 8568
2 28375 098.2492 103.2462 0083552 030.3837 330.2158 14.41384107522145
CP3
1 31129U 07012N 14156.13900028 .00000780 00000-0 18077-3 0 7636
2 31129 097.9321 134.7319 0099452 049.2579 080.5138 14.54669191378281
CO-65
1 32785U 08021C 14156.45408253 .00000911 00000-0 11205-3 0 9672
2 32785 097.7008 208.1356 0013158 221.6090 263.8116 14.85273598330286
PRISM
1 33493U 09002B 14156.79266692 .00002351 00000-0 25316-3 0 9819
2 33493 098.2486 331.9595 0019130 119.4315 240.8833 14.89377541290484
SOHLA-1
1 33496U 09002E 14156.35154354 .00000238 00000-0 47338-4 0 3685
2 33496 098.1685 277.2544 0005041 278.6851 149.2983 14.70803259287778
TISAT-1
1 36799U 10035E 14156.76854156 .00001411 00000-0 16920-3 0 2421
2 36799 098.0170 248.6772 0013783 005.8226 354.3147 14.85623648211022
STUDSAT
1 36801U 10035G 14156.84362493 .00007248 00000-0 64256-3 0 8348
2 36801 098.0352 256.5737 0007382 337.5678 134.3619 14.96510364211438
ALMASAT-1
1 38078U 12006B 14156.15552262 .00034679 00000-0 74311-3 0 449
2 38078 069.4689 088.3050 0595924 047.7776 052.1828 14.49034915119890
XATCOBEO
1 38082U 12006F 14156.86594399 .00179436 11937-4 10844-2 0 2841
2 38082 069.4420 348.0892 0214984 351.9719 113.2485 15.51822288122635
CUBEBUG-1
1 39153U 13018D 14156.77857675 .00000712 00000-0 10650-3 0 1822
2 39153 098.0450 237.1053 0018468 031.8796 328.3523 14.77694364 59877
ESTCUBE-1
1 39161U 13021C 14156.78706974 .00000605 00000-0 10913-3 0 1655
2 39161 098.0972 237.7679 0011617 075.3237 284.9233 14.69980056 57923
MET-2/21
1 22782U 93055A 14156.13690295 .00000071 00000-0 50879-4 0 739
2 22782 082.5479 182.8662 0020849 300.2134 116.8582 13.83736546 48455
OKEAN-4
1 23317U 94066A 14156.50767624 .00000694 00000-0 77216-4 0 5515
2 23317 082.5400 078.8836 0022075 135.2950 351.3682 14.85513074 61371
NOAA-14
1 23455U 94089A 14154.42553738 -.00000006 00000-0 19655-4 0 7716
2 23455 098.7784 238.1059 0010504 082.0760 029.9569 14.13974403 2003
NOAA-15
1 25338U 98030A 14154.50667801 .00000163 00000-0 88011-4 0 2051
2 25338 098.7512 148.3926 0010776 181.6771 288.2881 14.25424884834891
RESURS
1 25394U 98043A 14156.50209530 -.00000055 00000-0 -56712-5 0 6724
2 25394 098.4111 121.3659 0000414 357.2970 111.0616 14.24395201826652
FENGYUN1
1 25730U 99025A 14156.85267797 .00000611 00000-0 35743-3 0 1625
2 25730 098.9116 118.0144 0026180 139.6082 273.2323 14.11888324775920
OKEAN-0
1 25860U 99039A 14156.45722664 .00000325 00000-0 55555-4 0 2682
2 25860 098.0411 120.3923 0002093 102.4390 050.0896 14.75267649800422
NOAA-16
1 26536U 00055A 14154.43926722 .00000176 00000-0 11872-3 0 6951
2 26536 098.9915 214.7429 0010141 219.1371 262.2437 14.13045765706178
NOAA-17
1 27453U 02032A 14155.48184723 .00000066 00000-0 45920-4 0 6006
2 27453 098.3130 155.8634 0011339 205.3716 154.6909 14.24748532620877
NOAA-18
1 28654U 05018A 14154.50587271 .00000253 00000-0 16335-3 0 957
2 28654 099.1463 133.7315 0013278 304.8272 165.4719 14.12020718465632
NOAA-19
1 33591U 09005A 14154.46662535 .00000145 00000-0 10409-3 0 2526
2 33591 098.9434 099.5455 0014630 154.4949 343.5589 14.11719135274055
HUBBLE
1 20580U 90037B 14156.12909361 .00001226 00000-0 71496-4 0 276
2 20580 028.4701 116.3944 0003034 152.2805 304.7170 15.05415602122893
ISS
1 25544U 98067A 14156.82220266 .00003903 00000-0 74858-4 0 4306
2 25544 051.6469 155.9245 0004319 072.8789 349.7404 15.50575515889568
CO-58
1 28895U 05043F 14156.50604207 .00000474 00000-0 10344-3 0 7858
2 28895 097.8360 358.9808 0018305 051.7360 308.5486 14.61880831458547
FALCON
1 30776U 07006E 14156.53056757 .00003832 00000-0 19638-3 0 8828
2 30776 035.4280 185.9133 0002710 209.1465 278.7830 15.16184107398968
MAST
1 31126U 07012K 14156.52486124 .00000486 00000-0 11595-3 0 614
2 31126 097.9125 138.0261 0092637 031.6814 081.9855 14.55268196378695
CAPE1
1 31130U 07012P 14156.44725462 .00000711 00000-0 16663-3 0 679
2 31130 097.9334 134.5913 0100020 049.5999 311.3874 14.54425404378108
COMPASS
1 32787U 08021E 14156.73367135 .00002176 00000-0 24340-3 0 9486
2 32787 097.7028 210.5925 0013480 212.5658 147.4729 14.87857425330484
AAUSAT2
1 32788U 08021F 14156.13829942 .00001978 00000-0 21807-3 0 9349
2 32788 097.7039 210.9869 0012961 212.5936 147.4483 14.88560432330454
DO-64
1 32789U 08021G 14156.15431179 .00003342 00000-0 32423-3 0 9740
2 32789 097.7221 217.3877 0012200 198.1414 218.9399 14.93276956330703
CO-66
1 32791U 08021J 14156.14135915 .00001212 00000-0 14269-3 0 9316
2 32791 097.7025 208.8074 0013931 218.3758 141.6468 14.86531755330263
RS-30
1 32953U 08025A 14156.64058719 .00000010 00000-0 00000 0 0 9848
2 32953 082.5040 208.3903 0019014 176.9835 183.1366 12.43047704273824
METEOR-M
1 35865U 09049A 14156.75557483 -.00000024 00000-0 85364-5 0 5994
2 35865 098.5504 204.5141 0003066 115.4896 244.6596 14.21922970244717
RS-38
1 35869U 09049E 14156.75000038 .00000033 00000-0 34132-4 0 5206
2 35869 098.5441 204.3117 0005795 124.2939 012.0480 14.22211095244741
JUGNU
1 37839U 11058B 14155.81364957 .00000364 00000-0 52188-4 0 6307
2 37839 019.9628 329.9313 0018911 208.5558 241.6316 14.12310215136801
